Orbital Elements at Epoch 2459200.5 (2020-Dec-17.0) TDB
Reference: JPL 26 (heliocentric ecliptic J2000)
Element | Value | Uncertainty (1-sigma) | Units |
e | .0969016968456404 | 4.9539e-08 | |
a | 2.802284908591025 | 1.4355e-08 | au |
q | 2.530738745903625 | 1.3689e-07 | au |
i | 1.712169321848046 | 3.8384e-06 | deg |
node | 230.8634010349347 | 0.00014951 | deg |
peri | 143.0188823367367 | 0.0001508 | deg |
M | 185.1940103611666 | 2.1454e-05 | deg |
tp | 2460032.494906386458 (2023-Mar-28.99490639) | 0.00010441 | TDB |
period | 1713.431941994431 4.69 | 1.3166e-05 3.605e-08 | d yr |
n | .2101046392195541 | 1.6144e-09 | deg/d |
Q | 3.073831071278426 | 1.5746e-08 | au |
|
| | Orbit Determination Parameters
Additional Information
|